TimeCDT,TemperatureF,Dew PointF,Humidity,Sea Level PressureIn,VisibilityMPH,Wind Direction,Wind SpeedMPH,Gust SpeedMPH,PrecipitationIn,Events,Conditions,WindDirDegrees,DateUTC
12:53 AM,28.0,28.0,100,30.34,0.2,Calm,Calm,-,N/A,Fog,Light Freezing Fog,0,2014-03-09 06:53:00
1:53 AM,26.1,26.1,100,30.35,0.2,SSW,3.5,-,N/A,Fog,Light Freezing Fog,200,2014-03-09 07:53:00
3:53 AM,25.0,24.1,96,30.34,0.2,Calm,Calm,-,N/A,Fog,Light Freezing Fog,0,2014-03-09 08:53:00
4:53 AM,24.1,23.0,96,30.34,0.2,Calm,Calm,-,N/A,Fog,Light Freezing Fog,0,2014-03-09 09:53:00
5:53 AM,24.1,21.9,91,30.35,0.2,Calm,Calm,-,N/A,Fog,Light Freezing Fog,0,2014-03-09 10:53:00
6:53 AM,24.1,21.0,88,30.34,0.2,SSE,3.5,-,N/A,Fog,Light Freezing Fog,150,2014-03-09 11:53:00
7:29 AM,26.1,25.0,96,30.31,1.0,Calm,Calm,-,N/A,,Mist,0,2014-03-09 12:29:00
7:53 AM,28.9,27.0,92,30.33,0.2,SE,4.6,-,0.00,Fog-Snow,Light Snow,130,2014-03-09 12:53:00
8:53 AM,28.9,28.0,96,30.34,0.2,SSE,4.6,-,0.00,Fog,Light Freezing Fog,150,2014-03-09 13:53:00
9:53 AM,30.0,28.9,96,30.36,0.2,Calm,Calm,-,N/A,Fog,Light Freezing Fog,0,2014-03-09 14:53:00
10:53 AM,32.0,30.9,96,30.36,0.2,SSW,4.6,-,N/A,Fog,Fog,210,2014-03-09 15:53:00
11:36 AM,34.0,34.0,100,30.32,1.5,SSW,5.8,-,N/A,,Overcast,200,2014-03-09 16:36:00
11:53 AM,37.0,-9999,N/A,30.34,2.0,South,5.8,-,N/A,,Overcast,170,2014-03-09 16:53:00
12:19 PM,39.0,37.0,93,30.30,5.0,South,9.2,-,N/A,,Mostly Cloudy,170,2014-03-09 17:19:00
12:32 PM,39.9,36.0,86,30.30,4.0,SSW,6.9,-,N/A,,Scattered Clouds,210,2014-03-09 17:32:00
12:53 PM,42.1,36.0,79,30.32,5.0,SSW,6.9,-,N/A,,Haze,200,2014-03-09 17:53:00
1:53 PM,46.0,35.1,66,30.28,6.0,Variable,4.6,-,N/A,,Clear,0,2014-03-09 18:53:00
2:53 PM,52.0,30.0,43,30.22,10.0,SSW,11.5,-,N/A,,Clear,200,2014-03-09 19:53:00
3:53 PM,54.0,28.0,37,30.18,10.0,SW,9.2,-,N/A,,Clear,220,2014-03-09 20:53:00
4:53 PM,55.9,34.0,44,30.15,10.0,SSW,12.7,-,N/A,,Clear,210,2014-03-09 21:53:00
5:53 PM,55.0,35.1,47,30.13,10.0,SSW,12.7,-,N/A,,Clear,210,2014-03-09 22:53:00
6:53 PM,52.0,37.9,59,30.12,10.0,SSW,10.4,-,N/A,,Clear,210,2014-03-09 23:53:00
7:53 PM,46.9,37.9,71,30.12,10.0,SSW,8.1,-,N/A,,Clear,200,2014-03-10 00:53:00
8:53 PM,48.0,39.0,71,30.12,9.0,SW,10.4,-,N/A,,Clear,220,2014-03-10 01:53:00
9:53 PM,48.0,39.0,71,30.13,8.0,SSW,12.7,-,N/A,,Clear,210,2014-03-10 02:53:00
10:53 PM,46.0,39.0,76,30.12,7.0,SSW,11.5,-,N/A,,Clear,210,2014-03-10 03:53:00
11:53 PM,44.1,39.0,82,30.10,6.0,SSW,12.7,-,N/A,,Haze,210,2014-03-10 04:53:00
12:53 AM,45.0,39.0,80,30.08,6.0,SSW,13.8,-,N/A,,Haze,200,2014-03-10 05:53:00